Time,TemperatureF,DewpointF,PressureIn,WindDirection,WindDirectionDegrees,WindSpeedMPH,WindSpeedGustMPH,Humidity,HourlyPrecipIn,Conditions,Clouds,dailyrainin,SoftwareType,DateUTC
2013-11-18 00:00:00,46.6,43.5,29.59,NNE,14,0.0,3.0,89,0.00,CLR,CLR,0.00,WeatherDisplay:10.37,2013-11-18 05:00:00,
2013-11-18 00:05:00,46.6,43.5,29.56,NNE,31,0.0,0.0,89,0.00,CLR,CLR,0.00,WeatherDisplay:10.37,2013-11-18 05:05:00,
2013-11-18 00:10:00,46.6,43.5,29.56,NE,37,0.0,0.0,89,0.00,CLR,CLR,0.00,WeatherDisplay:10.37,2013-11-18 05:10:00,
2013-11-18 00:15:00,46.6,43.5,29.56,NE,37,0.0,0.0,89,0.00,CLR,CLR,0.00,WeatherDisplay:10.37,2013-11-18 05:15:00,
2013-11-18 00:20:00,46.6,43.6,29.56,NE,37,0.0,0.0,89,0.00,CLR,CLR,0.00,WeatherDisplay:10.37,2013-11-18 05:20:00,
2013-11-18 00:25:00,46.8,43.7,29.56,NE,37,0.0,0.0,89,0.00,CLR,CLR,0.00,WeatherDisplay:10.37,2013-11-18 05:25:00,
2013-11-18 00:30:00,46.8,43.7,29.56,NE,37,0.0,0.0,89,0.00,CLR,CLR,0.00,WeatherDisplay:10.37,2013-11-18 05:30:00,
2013-11-18 00:40:00,46.9,43.9,29.53,NE,37,0.0,0.0,89,0.00,CLR,CLR,0.00,WeatherDisplay:10.37,2013-11-18 05:40:00,
2013-11-18 00:50:00,47.1,44.0,29.53,NE,37,0.0,0.0,89,0.00,CLR,CLR,0.00,WeatherDisplay:10.37,2013-11-18 05:50:00,
2013-11-18 01:00:00,47.3,44.2,29.53,NE,37,0.0,0.0,89,0.00,CLR,CLR,0.00,WeatherDisplay:10.37,2013-11-18 06:00:00,
2013-11-18 01:05:00,47.5,44.4,29.50,NE,37,0.0,0.0,89,0.00,CLR,CLR,0.00,WeatherDisplay:10.37,2013-11-18 06:05:00,
2013-11-18 01:10:00,47.5,44.4,29.50,NNE,27,0.0,2.0,89,0.00,CLR,CLR,0.00,WeatherDisplay:10.37,2013-11-18 06:10:00,
2013-11-18 01:20:00,47.7,44.6,29.50,NNE,20,0.0,0.0,89,0.00,CLR,CLR,0.00,WeatherDisplay:10.37,2013-11-18 06:20:00,
2013-11-18 01:30:00,47.7,44.6,29.50,NNE,18,0.0,3.0,89,0.00,CLR,CLR,0.00,WeatherDisplay:10.37,2013-11-18 06:30:00,
2013-11-18 01:40:00,48.2,45.4,29.47,NNE,22,1.0,4.0,90,0.00,CLR,CLR,0.00,WeatherDisplay:10.37,2013-11-18 06:40:00,
2013-11-18 01:50:00,50.4,47.8,29.47,East,99,0.0,3.0,91,0.00,CLR,CLR,0.00,WeatherDisplay:10.37,2013-11-18 06:50:00,
2013-11-18 02:00:00,53.3,50.8,29.47,SE,144,0.0,3.0,91,0.00,CLR,CLR,0.00,WeatherDisplay:10.37,2013-11-18 07:00:00,
2013-11-18 02:05:00,54.1,51.9,29.47,SE,125,0.0,4.0,92,0.00,CLR,CLR,0.00,WeatherDisplay:10.37,2013-11-18 07:05:00,
2013-11-18 02:10:00,54.7,52.4,29.47,ESE,112,0.0,5.0,92,0.00,CLR,CLR,0.00,WeatherDisplay:10.37,2013-11-18 07:10:00,
2013-11-18 02:15:00,55.0,52.8,29.47,ESE,120,0.0,4.0,92,0.00,CLR,CLR,0.00,WeatherDisplay:10.37,2013-11-18 07:15:00,
2013-11-18 02:20:00,55.2,52.6,29.44,SE,129,0.0,5.0,91,0.00,CLR,CLR,0.00,WeatherDisplay:10.37,2013-11-18 07:20:00,
2013-11-18 02:30:00,55.6,53.0,29.44,SE,131,2.0,6.0,91,0.00,CLR,CLR,0.00,WeatherDisplay:10.37,2013-11-18 07:30:00,
2013-11-18 02:40:00,55.8,53.2,29.44,SE,125,1.0,6.0,91,0.00,CLR,CLR,0.00,WeatherDisplay:10.37,2013-11-18 07:40:00,
2013-11-18 02:50:00,55.8,53.2,29.41,SE,129,0.0,3.0,91,0.00,CLR,CLR,0.00,WeatherDisplay:10.37,2013-11-18 07:50:00,
2013-11-18 03:00:00,55.9,53.4,29.41,ESE,113,0.0,4.0,91,0.00,CLR,CLR,0.00,WeatherDisplay:10.37,2013-11-18 08:00:00,
2013-11-18 03:05:00,55.9,53.4,29.41,ESE,107,1.0,4.0,91,0.00,CLR,CLR,0.00,WeatherDisplay:10.37,2013-11-18 08:05:00,
2013-11-18 03:10:00,55.9,53.4,29.41,ESE,116,3.0,6.0,91,0.00,RA,RA,0.02,WeatherDisplay:10.37,2013-11-18 08:10:00,
2013-11-18 03:20:00,55.9,53.4,29.38,SE,124,0.0,6.0,91,0.00,,,0.02,WeatherDisplay:10.37,2013-11-18 08:20:00,
2013-11-18 03:30:00,56.3,54.0,29.38,ESE,108,6.0,6.0,92,0.00,,,0.02,WeatherDisplay:10.37,2013-11-18 08:30:00,
2013-11-18 03:40:00,56.5,53.9,29.35,ESE,122,5.0,9.0,91,0.00,,,0.02,WeatherDisplay:10.37,2013-11-18 08:40:00,
2013-11-18 03:50:00,56.7,54.1,29.35,SE,140,3.0,6.0,91,0.00,,,0.02,WeatherDisplay:10.37,2013-11-18 08:50:00,
2013-11-18 04:00:00,56.7,54.4,29.35,SE,127,3.0,6.0,92,0.00,,,0.02,WeatherDisplay:10.37,2013-11-18 09:00:00,
2013-11-18 04:05:00,56.8,54.5,29.32,SE,131,2.0,6.0,92,0.00,,,0.02,WeatherDisplay:10.37,2013-11-18 09:05:00,
2013-11-18 04:10:00,56.8,54.5,29.32,ESE,112,3.0,6.0,92,0.00,CLR,CLR,0.02,WeatherDisplay:10.37,2013-11-18 09:10:00,
2013-11-18 04:20:00,57.2,54.9,29.32,SE,133,2.0,9.0,92,0.00,CLR,CLR,0.02,WeatherDisplay:10.37,2013-11-18 09:20:00,
2013-11-18 04:30:00,57.2,54.9,29.32,SE,137,3.0,6.0,92,0.00,CLR,CLR,0.02,WeatherDisplay:10.37,2013-11-18 09:30:00,
2013-11-18 04:35:00,57.4,55.1,29.32,SE,128,2.0,6.0,92,0.00,CLR,CLR,0.02,WeatherDisplay:10.37,2013-11-18 09:35:00,
2013-11-18 04:45:00,57.6,55.6,29.32,SE,143,3.0,10.0,93,0.00,CLR,CLR,0.02,WeatherDisplay:10.37,2013-11-18 09:45:00,
2013-11-18 04:50:00,57.6,55.6,29.29,SE,137,5.0,8.0,93,0.00,CLR,CLR,0.02,WeatherDisplay:10.37,2013-11-18 09:50:00,
2013-11-18 05:00:00,57.6,55.6,29.29,SSE,150,3.0,8.0,93,0.00,CLR,CLR,0.02,WeatherDisplay:10.37,2013-11-18 10:00:00,
2013-11-18 05:05:00,57.8,55.8,29.26,SSE,149,5.0,9.0,93,0.00,CLR,CLR,0.02,WeatherDisplay:10.37,2013-11-18 10:05:00,
2013-11-18 05:10:00,57.9,55.9,29.26,SSE,147,6.0,11.0,93,0.00,CLR,CLR,0.02,WeatherDisplay:10.37,2013-11-18 10:10:00,
2013-11-18 05:20:00,58.1,56.1,29.26,SE,145,5.0,10.0,93,0.00,CLR,CLR,0.02,WeatherDisplay:10.37,2013-11-18 10:20:00,
2013-11-18 05:30:00,58.3,56.3,29.26,SE,130,5.0,9.0,93,0.00,CLR,CLR,0.02,WeatherDisplay:10.37,2013-11-18 10:30:00,
2013-11-18 05:40:00,58.5,56.4,29.24,ESE,114,5.0,8.0,93,0.00,CLR,CLR,0.02,WeatherDisplay:10.37,2013-11-18 10:40:00,
2013-11-18 05:50:00,58.5,56.4,29.24,SE,125,7.0,10.0,93,0.00,CLR,CLR,0.02,WeatherDisplay:10.37,2013-11-18 10:50:00,
2013-11-18 06:00:00,58.5,56.4,29.24,SE,129,5.0,7.0,93,0.00,CLR,CLR,0.02,WeatherDisplay:10.37,2013-11-18 11:00:00,
2013-11-18 06:05:00,58.5,56.4,29.20,SE,127,7.0,10.0,93,0.00,CLR,CLR,0.02,WeatherDisplay:10.37,2013-11-18 11:05:00,
2013-11-18 06:10:00,58.6,56.6,29.20,SE,129,6.0,10.0,93,0.00,CLR,CLR,0.02,WeatherDisplay:10.37,2013-11-18 11:10:00,
2013-11-18 06:20:00,59.0,56.9,29.20,SE,135,3.0,8.0,93,0.00,CLR,CLR,0.02,WeatherDisplay:10.37,2013-11-18 11:20:00,
2013-11-18 06:30:00,59.2,57.5,29.20,SE,129,5.0,9.0,94,0.00,CLR,CLR,0.02,WeatherDisplay:10.37,2013-11-18 11:30:00,
2013-11-18 06:40:00,59.7,58.0,29.18,SE,139,7.0,12.0,94,0.00,CLR,CLR,0.02,WeatherDisplay:10.37,2013-11-18 11:40:00,
2013-11-18 06:50:00,60.3,58.5,29.18,SE,142,7.0,13.0,94,0.00,RA,RA,0.04,WeatherDisplay:10.37,2013-11-18 11:50:00,
2013-11-18 07:00:00,60.4,58.7,29.18,SE,141,7.0,12.0,94,0.00,RA,RA,0.08,WeatherDisplay:10.37,2013-11-18 12:00:00,
2013-11-18 07:05:00,60.6,58.8,29.15,SSE,148,7.0,13.0,94,0.00,,,0.08,WeatherDisplay:10.37,2013-11-18 12:05:00,
2013-11-18 07:10:00,60.6,58.9,29.15,SE,144,5.0,11.0,94,0.00,,,0.08,WeatherDisplay:10.37,2013-11-18 12:10:00,
2013-11-18 07:20:00,60.6,58.9,29.15,SE,140,7.0,13.0,94,0.00,RA,RA,0.12,WeatherDisplay:10.37,2013-11-18 12:20:00,
2013-11-18 07:30:00,60.6,59.2,29.15,SSE,158,6.0,8.0,95,0.00,,,0.12,WeatherDisplay:10.37,2013-11-18 12:30:00,
2013-11-18 07:40:00,60.6,59.2,29.15,SSE,154,6.0,13.0,95,0.00,,,0.12,WeatherDisplay:10.37,2013-11-18 12:40:00,
2013-11-18 07:50:00,61.2,59.7,29.12,SSE,147,6.0,11.0,95,0.00,,,0.12,WeatherDisplay:10.37,2013-11-18 12:50:00,
2013-11-18 08:00:00,61.7,60.3,29.12,SSE,153,6.0,11.0,95,0.00,RA,RA,0.14,WeatherDisplay:10.37,2013-11-18 13:00:00,
2013-11-18 08:05:00,61.9,60.4,29.15,SSE,160,9.0,15.0,95,0.00,RA,RA,0.16,WeatherDisplay:10.37,2013-11-18 13:05:00,
2013-11-18 08:10:00,62.2,60.8,29.15,SSE,168,10.0,15.0,95,0.00,RA,RA,0.16,WeatherDisplay:10.37,2013-11-18 13:10:00,
2013-11-18 08:20:00,62.8,61.3,29.15,South,187,6.0,9.0,95,0.02,RA,RA,0.18,WeatherDisplay:10.37,2013-11-18 13:20:00,
2013-11-18 08:30:00,62.5,61.1,29.15,South,178,6.0,9.0,95,0.00,,,0.18,WeatherDisplay:10.37,2013-11-18 13:30:00,
2013-11-18 08:40:00,62.2,60.8,29.15,South,184,0.0,5.0,95,0.00,,,0.18,WeatherDisplay:10.37,2013-11-18 13:40:00,
2013-11-18 08:50:00,62.4,61.0,29.12,South,170,3.0,6.0,95,0.00,,,0.18,WeatherDisplay:10.37,2013-11-18 13:50:00,
2013-11-18 09:00:00,62.1,60.6,29.12,SSE,160,3.0,6.0,95,0.00,,,0.18,WeatherDisplay:10.37,2013-11-18 14:00:00,
2013-11-18 09:05:00,61.9,60.4,29.15,SSE,167,3.0,6.0,95,0.00,,,0.18,WeatherDisplay:10.37,2013-11-18 14:05:00,
2013-11-18 09:10:00,61.9,60.4,29.15,SSE,157,3.0,6.0,95,0.00,,,0.18,WeatherDisplay:10.37,2013-11-18 14:10:00,
2013-11-18 09:20:00,61.7,60.3,29.12,SSE,152,3.0,6.0,95,0.00,CLR,CLR,0.18,WeatherDisplay:10.37,2013-11-18 14:20:00,
2013-11-18 09:30:00,61.5,60.1,29.12,SSE,165,5.0,6.0,95,0.00,CLR,CLR,0.18,WeatherDisplay:10.37,2013-11-18 14:30:00,
2013-11-18 09:40:00,61.3,59.9,29.12,SSE,160,3.0,6.0,95,0.00,CLR,CLR,0.18,WeatherDisplay:10.37,2013-11-18 14:40:00,
2013-11-18 09:50:00,61.5,60.1,29.15,South,184,7.0,10.0,95,0.00,CLR,CLR,0.18,WeatherDisplay:10.37,2013-11-18 14:50:00,
2013-11-18 09:59:00,61.2,59.7,29.15,South,188,3.0,9.0,95,0.00,CLR,CLR,0.18,WeatherDisplay:10.37,2013-11-18 14:59:00,
2013-11-18 10:04:00,61.0,59.5,29.15,SSW,194,5.0,10.0,95,0.00,CLR,CLR,0.18,WeatherDisplay:10.37,2013-11-18 15:04:00,
2013-11-18 10:09:00,61.0,59.5,29.15,SSW,193,6.0,8.0,95,0.00,CLR,CLR,0.18,WeatherDisplay:10.37,2013-11-18 15:09:00,
2013-11-18 10:19:00,61.2,59.7,29.15,South,187,5.0,10.0,95,0.00,CLR,CLR,0.18,WeatherDisplay:10.37,2013-11-18 15:19:00,
2013-11-18 10:29:00,61.7,60.0,29.15,SSW,196,9.0,15.0,94,0.00,CLR,CLR,0.18,WeatherDisplay:10.37,2013-11-18 15:29:00,
2013-11-18 10:39:00,61.1,58.7,29.12,SSW,205,6.0,15.0,92,0.00,CLR,CLR,0.18,WeatherDisplay:10.37,2013-11-18 15:39:00,
2013-11-18 10:49:00,59.2,52.0,29.15,SSW,196,8.0,13.0,77,0.00,CLR,CLR,0.18,WeatherDisplay:10.37,2013-11-18 15:49:00,
2013-11-18 10:54:00,59.5,52.7,29.15,South,187,7.0,12.0,78,0.00,CLR,CLR,0.18,WeatherDisplay:10.37,2013-11-18 15:54:00,
2013-11-18 10:59:00,60.1,53.9,29.15,South,179,6.0,15.0,80,0.00,CLR,CLR,0.18,WeatherDisplay:10.37,2013-11-18 15:59:00,
2013-11-18 11:04:00,60.1,54.6,29.12,South,179,8.0,17.0,82,0.00,CLR,CLR,0.18,WeatherDisplay:10.37,2013-11-18 16:04:00,
2013-11-18 11:09:00,58.8,48.7,29.12,SSW,196,6.0,11.0,69,0.00,CLR,CLR,0.18,WeatherDisplay:10.37,2013-11-18 16:09:00,
2013-11-18 11:19:00,58.9,49.9,29.12,SSW,204,7.0,13.0,72,0.00,CLR,CLR,0.18,WeatherDisplay:10.37,2013-11-18 16:19:00,
2013-11-18 11:29:00,58.5,47.5,29.12,South,186,7.0,13.0,67,0.00,CLR,CLR,0.18,WeatherDisplay:10.37,2013-11-18 16:29:00,
2013-11-18 11:39:00,56.9,37.4,29.12,SSW,212,6.0,13.0,48,0.00,CLR,CLR,0.18,WeatherDisplay:10.37,2013-11-18 16:39:00,
2013-11-18 11:49:00,57.5,39.5,29.12,SSW,195,6.0,13.0,51,0.00,CLR,CLR,0.18,WeatherDisplay:10.37,2013-11-18 16:49:00,
2013-11-18 11:59:00,57.7,37.6,29.12,SSW,195,7.0,13.0,47,0.00,CLR,CLR,0.18,WeatherDisplay:10.37,2013-11-18 16:59:00,
2013-11-18 12:04:00,57.7,34.8,29.12,SSW,193,8.0,15.0,42,0.00,CLR,CLR,0.18,WeatherDisplay:10.37,2013-11-18 17:04:00,
2013-11-18 12:09:00,57.9,33.1,29.12,SSW,207,10.0,15.0,39,0.00,CLR,CLR,0.18,WeatherDisplay:10.37,2013-11-18 17:09:00,
2013-11-18 12:19:00,57.2,31.8,29.12,SSW,201,7.0,13.0,38,0.00,CLR,CLR,0.18,WeatherDisplay:10.37,2013-11-18 17:19:00,
2013-11-18 12:29:00,56.8,31.5,29.12,South,183,10.0,15.0,38,0.00,CLR,CLR,0.18,WeatherDisplay:10.37,2013-11-18 17:29:00,
2013-11-18 12:39:00,57.5,32.8,29.12,SSW,193,8.0,15.0,39,0.00,CLR,CLR,0.18,WeatherDisplay:10.37,2013-11-18 17:39:00,
2013-11-18 12:49:00,58.0,32.5,29.12,South,180,9.0,16.0,38,0.00,CLR,CLR,0.18,WeatherDisplay:10.37,2013-11-18 17:49:00,
2013-11-18 12:59:00,58.4,31.5,29.12,South,175,10.0,13.0,36,0.00,CLR,CLR,0.18,WeatherDisplay:10.37,2013-11-18 17:59:00,
2013-11-18 13:04:00,58.5,30.9,29.15,South,179,9.0,18.0,35,0.00,CLR,CLR,0.18,WeatherDisplay:10.37,2013-11-18 18:04:00,
2013-11-18 13:09:00,58.5,30.2,29.15,South,185,13.0,19.0,34,0.00,CLR,CLR,0.18,WeatherDisplay:10.37,2013-11-18 18:09:00,
2013-11-18 13:19:00,58.5,30.2,29.15,South,189,8.0,15.0,34,0.00,CLR,CLR,0.18,WeatherDisplay:10.37,2013-11-18 18:19:00,
2013-11-18 13:29:00,58.6,30.3,29.15,SSW,199,9.0,14.0,34,0.00,CLR,CLR,0.18,WeatherDisplay:10.37,2013-11-18 18:29:00,
2013-11-18 13:39:00,58.5,28.7,29.15,SSW,193,6.0,13.0,32,0.00,CLR,CLR,0.18,WeatherDisplay:10.37,2013-11-18 18:39:00,
2013-11-18 13:49:00,58.5,30.2,29.15,SSW,199,6.0,13.0,34,0.00,CLR,CLR,0.18,WeatherDisplay:10.37,2013-11-18 18:49:00,
2013-11-18 13:59:00,58.5,26.3,29.15,SSW,204,10.0,13.0,29,0.00,CLR,CLR,0.18,WeatherDisplay:10.37,2013-11-18 18:59:00,
2013-11-18 14:04:00,58.5,26.3,29.15,SSW,204,6.0,12.0,29,0.00,CLR,CLR,0.18,WeatherDisplay:10.37,2013-11-18 19:04:00,
2013-11-18 14:09:00,58.5,25.4,29.15,SW,230,6.0,13.0,28,0.00,CLR,CLR,0.18,WeatherDisplay:10.37,2013-11-18 19:09:00,
2013-11-18 14:19:00,58.5,26.3,29.15,SSW,203,8.0,10.0,29,0.00,CLR,CLR,0.18,WeatherDisplay:10.37,2013-11-18 19:19:00,
2013-11-18 14:29:00,58.5,26.3,29.15,SW,230,2.0,8.0,29,0.00,CLR,CLR,0.18,WeatherDisplay:10.37,2013-11-18 19:29:00,
2013-11-18 14:39:00,58.2,26.9,29.15,SSW,201,6.0,8.0,30,0.00,CLR,CLR,0.18,WeatherDisplay:10.37,2013-11-18 19:39:00,
2013-11-18 14:49:00,58.1,28.4,29.15,South,178,7.0,12.0,32,0.00,CLR,CLR,0.18,WeatherDisplay:10.37,2013-11-18 19:49:00,
2013-11-18 14:59:00,57.9,28.2,29.15,South,172,9.0,13.0,32,0.00,CLR,CLR,0.18,WeatherDisplay:10.37,2013-11-18 19:59:00,
2013-11-18 15:04:00,57.7,28.0,29.15,South,176,5.0,13.0,32,0.00,CLR,CLR,0.18,WeatherDisplay:10.37,2013-11-18 20:04:00,
2013-11-18 15:09:00,57.6,28.6,29.15,South,191,6.0,13.0,33,0.00,CLR,CLR,0.18,WeatherDisplay:10.37,2013-11-18 20:09:00,
2013-11-18 15:19:00,57.5,28.6,29.15,South,186,7.0,10.0,33,0.00,CLR,CLR,0.18,WeatherDisplay:10.37,2013-11-18 20:19:00,
2013-11-18 15:29:00,56.7,27.9,29.15,South,172,6.0,13.0,33,0.00,CLR,CLR,0.18,WeatherDisplay:10.37,2013-11-18 20:29:00,
2013-11-18 15:39:00,56.3,27.5,29.18,South,187,5.0,9.0,33,0.00,CLR,CLR,0.18,WeatherDisplay:10.37,2013-11-18 20:39:00,
2013-11-18 15:49:00,55.8,27.8,29.18,South,186,6.0,8.0,34,0.00,CLR,CLR,0.18,WeatherDisplay:10.37,2013-11-18 20:49:00,
2013-11-18 15:59:00,55.4,27.5,29.18,South,187,0.0,6.0,34,0.00,CLR,CLR,0.18,WeatherDisplay:10.37,2013-11-18 20:59:00,
2013-11-18 16:04:00,55.1,27.2,29.18,South,177,2.0,4.0,34,0.00,CLR,CLR,0.18,WeatherDisplay:10.37,2013-11-18 21:04:00,
2013-11-18 16:09:00,54.7,26.9,29.18,South,174,0.0,3.0,34,0.00,CLR,CLR,0.18,WeatherDisplay:10.37,2013-11-18 21:09:00,
2013-11-18 16:19:00,53.8,26.7,29.18,SSE,166,0.0,3.0,35,0.00,CLR,CLR,0.18,WeatherDisplay:10.37,2013-11-18 21:19:00,
2013-11-18 16:25:00,52.9,25.9,29.18,South,172,0.0,3.0,35,0.00,CLR,CLR,0.18,WeatherDisplay:10.37,2013-11-18 21:25:00,
2013-11-18 16:30:00,52.0,25.8,29.18,South,175,0.0,2.0,36,0.00,CLR,CLR,0.18,WeatherDisplay:10.37,2013-11-18 21:30:00,
2013-11-18 16:40:00,50.5,25.2,29.18,South,176,0.0,0.0,37,0.00,CLR,CLR,0.18,WeatherDisplay:10.37,2013-11-18 21:40:00,
2013-11-18 16:50:00,49.1,25.2,29.18,South,177,0.0,0.0,39,0.00,CLR,CLR,0.18,WeatherDisplay:10.37,2013-11-18 21:50:00,
2013-11-18 17:00:00,47.9,25.9,29.18,South,179,0.0,0.0,42,0.00,CLR,CLR,0.18,WeatherDisplay:10.37,2013-11-18 22:00:00,
2013-11-18 17:05:00,47.5,28.2,29.18,South,181,0.0,0.0,47,0.00,CLR,CLR,0.18,WeatherDisplay:10.37,2013-11-18 22:05:00,
2013-11-18 17:10:00,47.0,27.2,29.18,South,186,0.0,0.0,46,0.00,CLR,CLR,0.18,WeatherDisplay:10.37,2013-11-18 22:10:00,
2013-11-18 17:20:00,46.2,27.1,29.20,South,188,0.0,0.0,47,0.00,CLR,CLR,0.18,WeatherDisplay:10.37,2013-11-18 22:20:00,
2013-11-18 17:30:00,45.3,27.8,29.20,South,188,0.0,0.0,50,0.00,CLR,CLR,0.18,WeatherDisplay:10.37,2013-11-18 22:30:00,
2013-11-18 17:35:00,45.1,28.1,29.20,South,188,0.0,0.0,51,0.00,CLR,CLR,0.18,WeatherDisplay:10.37,2013-11-18 22:35:00,
2013-11-18 17:40:00,44.8,27.7,29.20,South,188,0.0,0.0,51,0.00,CLR,CLR,0.18,WeatherDisplay:10.37,2013-11-18 22:40:00,
2013-11-18 17:50:00,44.2,27.2,29.20,South,169,0.0,0.0,51,0.00,CLR,CLR,0.18,WeatherDisplay:10.37,2013-11-18 22:50:00,
2013-11-18 18:00:00,43.7,27.7,29.20,South,184,0.0,5.0,53,0.00,CLR,CLR,0.18,WeatherDisplay:10.37,2013-11-18 23:00:00,
2013-11-18 18:05:00,43.5,28.0,29.20,WSW,241,0.0,0.0,54,0.00,CLR,CLR,0.18,WeatherDisplay:10.37,2013-11-18 23:05:00,
2013-11-18 18:10:00,43.9,29.2,29.20,WNW,283,0.0,4.0,56,0.00,CLR,CLR,0.18,WeatherDisplay:10.37,2013-11-18 23:10:00,
2013-11-18 18:20:00,44.4,29.7,29.20,ENE,67,0.0,0.0,56,0.00,CLR,CLR,0.18,WeatherDisplay:10.37,2013-11-18 23:20:00,
2013-11-18 18:30:00,44.2,30.0,29.20,NW,306,0.0,0.0,57,0.00,CLR,CLR,0.18,WeatherDisplay:10.37,2013-11-18 23:30:00,
2013-11-18 18:40:00,44.1,29.8,29.20,SW,229,0.0,0.0,57,0.00,CLR,CLR,0.18,WeatherDisplay:10.37,2013-11-18 23:40:00,
2013-11-18 18:50:00,43.5,29.7,29.20,West,259,0.0,0.0,58,0.00,CLR,CLR,0.18,WeatherDisplay:10.37,2013-11-18 23:50:00,
2013-11-18 19:00:00,42.8,28.6,29.20,West,259,0.0,0.0,57,0.00,CLR,CLR,0.18,WeatherDisplay:10.37,2013-11-19 00:00:00,
2013-11-18 19:10:00,42.1,28.4,29.20,West,259,0.0,0.0,58,0.00,CLR,CLR,0.18,WeatherDisplay:10.37,2013-11-19 00:10:00,
2013-11-18 19:20:00,41.4,28.1,29.20,West,259,0.0,0.0,59,0.00,CLR,CLR,0.18,WeatherDisplay:10.37,2013-11-19 00:20:00,
2013-11-18 19:30:00,40.6,27.4,29.20,West,259,0.0,0.0,59,0.00,CLR,CLR,0.18,WeatherDisplay:10.37,2013-11-19 00:30:00,
2013-11-18 19:40:00,39.9,27.1,29.20,West,259,0.0,0.0,60,0.00,CLR,CLR,0.18,WeatherDisplay:10.37,2013-11-19 00:40:00,
2013-11-18 19:50:00,39.4,26.6,29.20,West,259,0.0,0.0,60,0.00,CLR,CLR,0.18,WeatherDisplay:10.37,2013-11-19 00:50:00,
2013-11-18 20:00:00,39.2,26.9,29.20,West,259,0.0,0.0,61,0.00,CLR,CLR,0.18,WeatherDisplay:10.37,2013-11-19 01:00:00,
2013-11-18 20:05:00,39.2,27.3,29.20,West,267,0.0,0.0,62,0.00,CLR,CLR,0.18,WeatherDisplay:10.37,2013-11-19 01:05:00,
2013-11-18 20:10:00,39.5,27.9,29.20,WNW,292,0.0,0.0,63,0.00,CLR,CLR,0.18,WeatherDisplay:10.37,2013-11-19 01:10:00,
2013-11-18 20:20:00,39.7,28.5,29.20,NW,307,0.0,0.0,64,0.00,CLR,CLR,0.18,WeatherDisplay:10.37,2013-11-19 01:20:00,
2013-11-18 20:30:00,39.9,29.1,29.20,NW,307,0.0,0.0,65,0.00,CLR,CLR,0.18,WeatherDisplay:10.37,2013-11-19 01:30:00,
2013-11-18 20:40:00,40.3,29.4,29.20,NW,307,0.0,0.0,65,0.00,CLR,CLR,0.18,WeatherDisplay:10.37,2013-11-19 01:40:00,
2013-11-18 20:50:00,40.6,30.2,29.20,NW,307,0.0,0.0,66,0.00,CLR,CLR,0.18,WeatherDisplay:10.37,2013-11-19 01:50:00,
2013-11-18 21:00:00,40.8,30.3,29.20,NW,307,0.0,0.0,66,0.00,CLR,CLR,0.18,WeatherDisplay:10.37,2013-11-19 02:00:00,
2013-11-18 21:05:00,41.0,30.9,29.20,NW,307,0.0,0.0,67,0.00,CLR,CLR,0.18,WeatherDisplay:10.37,2013-11-19 02:05:00,
2013-11-18 21:10:00,41.0,31.2,29.20,NW,307,0.0,0.0,68,0.00,CLR,CLR,0.18,WeatherDisplay:10.37,2013-11-19 02:10:00,
2013-11-18 21:15:00,41.2,31.4,29.20,NW,307,0.0,0.0,68,0.00,CLR,CLR,0.18,WeatherDisplay:10.37,2013-11-19 02:15:00,
2013-11-18 21:20:00,41.2,31.4,29.20,NW,307,0.0,0.0,68,0.00,CLR,CLR,0.18,WeatherDisplay:10.37,2013-11-19 02:20:00,
2013-11-18 21:30:00,41.4,31.9,29.20,WSW,239,0.0,4.0,69,0.00,CLR,CLR,0.18,WeatherDisplay:10.37,2013-11-19 02:30:00,
2013-11-18 21:40:00,41.5,32.5,29.20,SSE,159,0.0,0.0,70,0.00,CLR,CLR,0.18,WeatherDisplay:10.37,2013-11-19 02:40:00,
2013-11-18 21:50:00,42.1,33.4,29.20,South,187,0.0,3.0,71,0.00,CLR,CLR,0.18,WeatherDisplay:10.37,2013-11-19 02:50:00,
2013-11-18 22:00:00,42.8,34.0,29.20,South,173,0.0,6.0,71,0.00,CLR,CLR,0.18,WeatherDisplay:10.37,2013-11-19 03:00:00,
2013-11-18 22:10:00,44.6,35.8,29.20,SW,230,0.0,4.0,71,0.00,CLR,CLR,0.18,WeatherDisplay:10.37,2013-11-19 03:10:00,
2013-11-18 22:20:00,46.1,30.8,29.20,WNW,301,1.0,4.0,55,0.00,CLR,CLR,0.18,WeatherDisplay:10.37,2013-11-19 03:20:00,
2013-11-18 22:30:00,46.9,30.2,29.20,South,178,0.0,6.0,52,0.00,CLR,CLR,0.18,WeatherDisplay:10.37,2013-11-19 03:30:00,
2013-11-18 22:40:00,47.1,27.3,29.20,SSW,209,1.0,6.0,46,0.00,CLR,CLR,0.18,WeatherDisplay:10.37,2013-11-19 03:40:00,
2013-11-18 22:50:00,46.9,25.6,29.20,SSW,192,3.0,5.0,43,0.00,CLR,CLR,0.18,WeatherDisplay:10.37,2013-11-19 03:50:00,
2013-11-18 22:59:00,46.0,24.2,29.20,South,189,5.0,8.0,42,0.00,CLR,CLR,0.18,WeatherDisplay:10.37,2013-11-19 03:59:00,
2013-11-18 23:04:00,45.9,22.3,29.20,SSW,192,6.0,11.0,39,0.00,CLR,CLR,0.18,WeatherDisplay:10.37,2013-11-19 04:04:00,
2013-11-18 23:10:00,46.0,22.4,29.20,South,174,5.0,6.0,39,0.00,CLR,CLR,0.18,WeatherDisplay:10.37,2013-11-19 04:10:00,
2013-11-18 23:14:00,46.2,22.0,29.20,SSW,197,2.0,7.0,38,0.00,CLR,CLR,0.18,WeatherDisplay:10.37,2013-11-19 04:14:00,
2013-11-18 23:20:00,46.2,22.0,29.20,SSW,205,0.0,6.0,38,0.00,CLR,CLR,0.18,WeatherDisplay:10.37,2013-11-19 04:20:00,
2013-11-18 23:29:00,46.0,21.2,29.20,NW,320,3.0,6.0,37,0.00,CLR,CLR,0.18,WeatherDisplay:10.37,2013-11-19 04:29:00,
2013-11-18 23:39:00,45.9,21.0,29.20,NW,316,2.0,4.0,37,0.00,CLR,CLR,0.18,WeatherDisplay:10.37,2013-11-19 04:39:00,
2013-11-18 23:45:00,45.5,20.7,29.20,WNW,297,1.0,6.0,37,0.00,CLR,CLR,0.18,WeatherDisplay:10.37,2013-11-19 04:45:00,
2013-11-18 23:54:00,44.6,20.6,29.20,SW,235,0.0,4.0,38,0.00,CLR,CLR,0.18,WeatherDisplay:10.37,2013-11-19 04:54:00,
2013-11-18 23:59:00,44.1,20.0,29.20,South,188,0.0,0.0,38,0.00,CLR,CLR,0.00,WeatherDisplay:10.37,2013-11-19 04:59:00,